#timestamp,LO_Frequency,Hit,StdDev 
1715666415.2,286047002.7,N
1715666435.9,286047000.6,N
1715666455.7,286046998.1,N
1715666475.6,286047000.6,N
1715666495.4,286047000.6,N
1715666515.3,286046999.8,N
1715666535.1,286047002.2,N
1715666536.0,286047002.2,N
1715666555.8,286047011.9,Y
1715666575.7,286047000.0,P
1715666595.5,286047000.2,N
1715666615.3,286047000.1,N
1715666635.2,286047002.7,Y
1715666655.0,286047000.5,P
1715666655.9,286047000.5,P
1715666675.8,286046998.5,P
1715666695.6,286047000.5,N
1715666715.4,286047000.4,N
1715666735.3,286047000.5,N
1715666755.1,286047000.8,N
1715666775.9,286047001.1,N
1715666795.7,286047000.4,N
1715666815.5,286047000.5,N
1715666835.4,286047000.0,N
1715666855.2,286047000.4,N
1715666875.1,286047000.3,N
1715666876.0,286047000.3,N
1715666895.8,286047000.0,N
1715666915.6,286047000.4,N
1715666935.5,286047000.2,N
1715666955.3,286047000.0,N
1715666975.1,286047000.9,N
1715666995.9,286046999.7,N
1715667015.7,286047002.3,Y
1715667035.6,286047000.1,P
1715667055.4,286047002.7,P
1715667075.2,286046999.9,N
1715667095.1,286046999.7,N
1715667096.0,286046999.7,N
1715667115.8,286047000.2,N
1715667135.7,286047001.0,N
1715667155.5,286047000.0,N
1715667175.3,286047001.0,N
1715667195.2,286047001.0,N
1715667215.0,286047000.7,N
1715667215.9,286047000.7,N
1715667235.8,286047001.1,N
1715667255.6,286047001.2,N
1715667275.4,286046999.8,N
1715667295.3,286047000.5,N
1715667315.1,286047000.4,N
1715667335.8,286047000.3,N
1715667355.7,286047000.4,N
1715667375.5,286047000.3,N
1715667395.4,286046998.1,N
1715667415.2,286046998.8,N
1715667435.0,286047001.0,N
1715667435.9,286047001.0,N
1715667455.8,286046998.4,N
1715667475.6,286046998.2,N
1715667495.4,286046998.7,N
1715667515.3,286046998.8,N
1715667535.1,286046998.7,N
1715667555.9,286047000.7,N
1715667575.7,286046999.4,N
1715667595.5,286047001.2,N
1715667615.4,286047001.2,N
1715667635.2,286046998.5,N
1715667655.1,286046999.1,N
1715667656.0,286046999.1,N
1715667675.8,286046999.0,N
1715667695.6,286046998.7,N
1715667715.5,286046996.6,Y
1715667735.3,286046998.8,P
1715667755.1,286047000.8,N
1715667775.9,286046998.3,N
1715667795.7,286047000.8,N
1715667815.6,286046998.8,N
1715667835.4,286046998.8,N
1715667855.2,286046999.4,N
1715667875.1,286046996.5,Y
1715667876.0,286046996.5,P
1715667895.8,286046998.3,N
1715667915.7,286047001.0,N
1715667935.5,286047000.4,N
1715667955.3,286046999.9,N
1715667975.2,286046999.7,N
1715667995.0,286046999.7,N
1715667995.9,286046999.7,N
1715668015.8,286047000.5,N
1715668035.6,286047000.5,N
1715668055.4,286047001.1,N
1715668075.3,286046998.6,N
1715668095.1,286046998.3,N
1715668115.9,286046997.5,N
1715668135.7,286046997.6,N
1715668155.5,286046995.4,Y
1715668175.4,286046996.1,P
1715668195.2,286046998.0,N
1715668215.1,286046995.4,P
1715668216.0,286046995.4,Y
1715668235.8,286046999.5,P
1715668255.6,286046999.6,N
1715668275.5,286046999.2,N
1715668295.3,286046999.5,N
1715668315.1,286046996.5,Y
1715668335.9,286046996.6,P
1715668355.7,286046997.4,N
1715668375.6,286046997.9,N
1715668395.4,286046998.0,N
1715668415.2,286046995.8,Y
1715668435.1,286046997.3,P
1715668436.0,286046997.3,P
1715668455.8,286046995.4,P
1715668475.7,286046994.9,Y
1715668495.5,286047000.4,P
1715668515.3,286047002.8,N
1715668535.2,286047002.3,N
1715668555.0,286047000.2,N
1715668555.9,286047000.2,N
1715668575.8,286047001.2,N
1715668595.6,286047000.9,N
1715668615.4,286047001.1,N
1715668635.3,286046998.2,N
1715668655.1,286046999.2,N
1715668675.9,286046997.4,N
1715668695.7,286046997.3,N
1715668715.5,286046999.2,N
1715668735.4,286046997.0,N
1715668755.2,286046994.9,N
1715668775.0,286046996.6,N
1715668775.9,286046996.6,N
1715668795.8,286046997.0,N
1715668815.6,286046994.9,N
1715668835.5,286046997.9,N
1715668855.3,286046997.2,N
1715668875.1,286046996.7,N
1715668895.9,286046997.7,N
1715668915.7,286046997.4,N
1715668935.5,286046998.0,N
1715668955.4,286046995.1,N
1715668975.2,286046995.7,N
1715668995.1,286046995.7,N
1715668996.0,286046995.7,N
1715669015.8,286046995.9,N
1715669035.6,286046995.6,N
1715669055.5,286046995.9,N
1715669075.3,286046995.5,N
1715669095.2,286046998.0,N
1715669115.9,286046995.1,N
1715669135.7,286046996.3,N
1715669155.6,286046993.4,Y
1715669175.4,286046999.5,P
1715669195.2,286046996.6,N
1715669215.1,286046996.7,N
1715669216.0,286046996.7,N
1715669235.8,286046996.6,Y
1715669255.7,286047000.0,P
1715669275.5,286047000.0,N
1715669295.3,286047002.4,N
1715669315.2,286047002.3,N
1715669335.0,286046999.9,N
1715669335.9,286046999.9,N
1715669355.8,286046999.8,N
1715669375.6,286046999.7,N
1715669395.4,286046999.9,N
1715669415.3,286046999.8,N
1715669435.1,286047000.0,N
1715669455.8,286047002.4,N
1715669475.7,286047002.8,N
1715669495.5,286047000.9,N
1715669515.4,286046998.6,N
1715669535.2,286047000.1,N
1715669555.0,286046998.4,N
1715669555.9,286046998.4,N
1715669575.8,286046998.6,N
1715669595.6,286047000.5,N
1715669615.4,286047000.4,N
1715669635.3,286046998.7,N
1715669655.1,286046998.8,N
1715669675.9,286046999.1,N
1715669695.7,286046996.9,N
1715669715.5,286046997.1,N
1715669735.4,286046996.7,N
1715669755.2,286046999.6,N
1715669775.1,286046999.1,N
1715669776.0,286046999.1,N
1715669795.8,286046998.5,N
1715669815.6,286046999.4,N
1715669835.5,286046998.4,N
1715669855.3,286046998.8,N
1715669875.1,286046999.0,N
1715669895.9,286046997.2,N
1715669915.7,286046996.7,N
1715669935.6,286046996.6,N
1715669955.4,286046996.6,N
1715669975.2,286046998.2,N
1715669995.1,286046998.4,N
1715669996.0,286046998.4,N
